Weather in Kitsman

Ukraine / Chernovtci District     48˚26′28″N   25˚45′35″E
temp.,
°C
wind,
m/s
gust,
m/s
humid.,
%
clouds,
%
prec.,
mm/h
press.,
hPa
HPBL,
m
3 december, thu
thu323:00−3˚ese410940 0.0 1024340
02:00−4˚ese411953 0.0 1023378
05:00−3˚se5129459 0.0 1022402
08:00−2˚se5139452 0.0 1021444
11:00+1˚se8138288 0.0 1020610
14:00+3˚se8137593 0.0 1018654
17:00+1˚se6148991 0.0 1018520
20:00+1˚se7159287 0.0 1017523
4 december, fri
fri423:00+1˚se8149079 0.0 1016537
02:00+1˚se7148989 0.0 1015533
05:00+1˚se71386100 0.0 1014520
08:00+1˚se6159390 0.0 1014478
11:00+6˚se10178118 0.0 1013676
14:00+8˚se10177536 0.0 1011695
17:00+7˚se919834 0.0 1012557
20:00+6˚se918859 0.0 1014476
5 december, sat
sat523:00+6˚se818900 0.0 1015468
02:00+6˚se818919 0.0 1015544
05:00+7˚se10198980 0.0 1016588
08:00+7˚se9188782 0.0 1017653
11:00+10˚se11177888 0.0 1017802
14:00+11˚se10177377 0.0 1017819
17:00+9˚se10188142 0.0 1018749
20:00+7˚se10178250 0.0 1020771
6 december, sun
sun623:00+7˚se10178197 0.0 1020784
02:00+6˚se10168399 0.0 1021768
05:00+5˚se101683100 0.0 1021786
08:00+5˚se111781100 0.0 1021873
11:00+5˚se111777100 0.0 1021903
14:00+5˚se11177596 0.0 1019911
17:00+3˚se111776100 0.0 1019905
20:00+2˚se111877100 0.0 1019798
7 december, mon
mon723:00+2˚se11177898 0.0 1019898
02:00+2˚se11188099 0.0 1018937
05:00+3˚se111879100 0.0 10181022
08:00+3˚se111880100 0.0 1018895
11:00+3˚se111778100 0.4 1019769
14:00+3˚se91578100 0.5 1018772
17:00+2˚ese91693100 1.8 1019601
20:00+2˚ese81495100 2.1 1019567